Hourly Weather Munyonyo

Today, 29 September, Wednesday

Time Temperature Precipitation Wind Pressure Humidity
00:00 +20°C° 0 mm 1 mps 661 mmHg 91%
01:00 +20°C° 0 mm 1 mps 660 mmHg 92%
02:00 +19°C° 0 mm 1 mps 660 mmHg 92%
03:00 +19°C° 0 mm 1 mps 660 mmHg 92%
04:00 +19°C° 0 mm 1 mps 660 mmHg 92%
05:00 +19°C° 0 mm 1 mps 661 mmHg 92%
06:00 +21°C° 0 mm 1 mps 661 mmHg 83%
07:00 +23°C° 0 mm 1 mps 662 mmHg 75%
08:00 +25°C° 0 mm 1 mps 663 mmHg 66%
09:00 +27°C° 0 mm 1 mps 663 mmHg 56%
10:00 +30°C° 0 mm 1 mps 663 mmHg 47%
11:00 +32°C° 0 mm 2 mps 663 mmHg 38%
12:00 +32°C° 0 mm 2 mps 662 mmHg 38%
13:00 +31°C° 0 mm 3 mps 662 mmHg 39%
14:00 +32°C° 0 mm 4 mps 661 mmHg 39%
15:00 +30°C° 0 mm 3 mps 661 mmHg 44%
16:00 +29°C° 0 mm 3 mps 661 mmHg 49%
17:00 +27°C° 0 mm 2 mps 660 mmHg 54%
18:00 +26°C° 0 mm 2 mps 660 mmHg 61%
19:00 +24°C° 0 mm 2 mps 661 mmHg 68%
20:00 +21°C° 0 mm 2 mps 661 mmHg 75%
21:00 +22°C° 0 mm 1 mps 661 mmHg 76%
22:00 +21°C° 0 mm 1 mps 661 mmHg 77%
23:00 +19°C° 0 mm 0 mps 661 mmHg 78%

Tomorrow, 30 September, Thursday

Time Temperature Precipitation Wind Pressure Humidity
00:00 +20°C° 0 mm 1 mps 660 mmHg 79%
01:00 +20°C° 0 mm 1 mps 660 mmHg 80%
02:00 +19°C° 0 mm 2 mps 659 mmHg 80%
03:00 +19°C° 0 mm 2 mps 660 mmHg 81%
04:00 +19°C° 0 mm 2 mps 660 mmHg 82%
05:00 +19°C° 0 mm 2 mps 660 mmHg 83%
06:00 +22°C° 0 mm 1 mps 661 mmHg 76%
07:00 +24°C° 0 mm 1 mps 662 mmHg 70%
08:00 +24°C° 0 mm 0 mps 663 mmHg 63%
09:00 +28°C° 0.3 mm 1 mps 663 mmHg 56%
10:00 +29°C° 0.3 mm 1 mps 663 mmHg 49%
11:00 +31°C° 0.3 mm 1 mps 664 mmHg 42%
12:00 +31°C° 0 mm 2 mps 663 mmHg 42%
13:00 +31°C° 0 mm 2 mps 662 mmHg 42%
14:00 +31°C° 0 mm 3 mps 661 mmHg 42%
15:00 +30°C° 0 mm 2 mps 661 mmHg 47%
16:00 +29°C° 0 mm 2 mps 661 mmHg 51%
17:00 +28°C° 0 mm 2 mps 661 mmHg 55%
18:00 +26°C° 0.1 mm 2 mps 660 mmHg 65%
19:00 +23°C° 0.1 mm 2 mps 660 mmHg 75%
20:00 +20°C° 0.1 mm 2 mps 660 mmHg 85%
21:00 +20°C° 0 mm 2 mps 660 mmHg 85%
22:00 +20°C° 0 mm 2 mps 660 mmHg 85%
23:00 +21°C° 0 mm 1 mps 660 mmHg 85%

Day after tomorrow, 1 October, Friday

Time Temperature Precipitation Wind Pressure Humidity
00:00 +19°C° 0 mm 2 mps 660 mmHg 87%
01:00 +19°C° 0 mm 2 mps 659 mmHg 89%
02:00 +19°C° 0 mm 3 mps 659 mmHg 91%
03:00 +18°C° 0 mm 2 mps 659 mmHg 92%
04:00 +18°C° 0 mm 2 mps 660 mmHg 93%
05:00 +18°C° 0 mm 2 mps 660 mmHg 94%
06:00 +21°C° 0.1 mm 1 mps 661 mmHg 84%
07:00 +24°C° 0.1 mm 1 mps 662 mmHg 74%
08:00 +26°C° 0.1 mm 1 mps 663 mmHg 64%
09:00 +28°C° 0.2 mm 1 mps 663 mmHg 56%
10:00 +30°C° 0.2 mm 1 mps 663 mmHg 49%
11:00 +32°C° 0.2 mm 1 mps 663 mmHg 41%
12:00 +31°C° 0 mm 2 mps 662 mmHg 42%
13:00 +31°C° 0 mm 3 mps 661 mmHg 43%
14:00 +31°C° 0 mm 3 mps 660 mmHg 44%
15:00 +30°C° 0 mm 3 mps 660 mmHg 48%
16:00 +28°C° 0 mm 3 mps 660 mmHg 52%
17:00 +27°C° 0 mm 2 mps 660 mmHg 56%
18:00 +26°C° 0.1 mm 2 mps 660 mmHg 65%
19:00 +24°C° 0.1 mm 1 mps 660 mmHg 73%
20:00 +20°C° 0.1 mm 0 mps 660 mmHg 82%
21:00 +22°C° 0 mm 1 mps 660 mmHg 83%
22:00 +21°C° 0 mm 1 mps 660 mmHg 85%
23:00 +20°C° 0 mm 2 mps 660 mmHg 86%

2 October, Saturday

Time Temperature Precipitation Wind Pressure Humidity
00:00 +19°C° 0 mm 2 mps 659 mmHg 89%
01:00 +19°C° 0 mm 2 mps 659 mmHg 92%
02:00 +19°C° 0 mm 2 mps 658 mmHg 95%
03:00 +19°C° 0 mm 1 mps 659 mmHg 94%
04:00 +19°C° 0 mm 1 mps 659 mmHg 94%
05:00 +19°C° 0 mm 1 mps 659 mmHg 93%
06:00 +21°C° 0 mm 1 mps 660 mmHg 82%
07:00 +24°C° 0 mm 1 mps 661 mmHg 71%
08:00 +24°C° 0 mm 0 mps 662 mmHg 60%
09:00 +28°C° 0 mm 1 mps 662 mmHg 53%
10:00 +30°C° 0 mm 2 mps 662 mmHg 46%
11:00 +32°C° 0 mm 2 mps 662 mmHg 39%
12:00 +30°C° 0.2 mm 3 mps 661 mmHg 47%
13:00 +29°C° 0.2 mm 3 mps 660 mmHg 54%
14:00 +27°C° 0.2 mm 3 mps 659 mmHg 61%
15:00 +26°C° 0.4 mm 2 mps 659 mmHg 67%
16:00 +25°C° 0.4 mm 2 mps 659 mmHg 73%
17:00 +23°C° 0.4 mm 1 mps 659 mmHg 78%
18:00 +23°C° 0 mm 1 mps 659 mmHg 81%
19:00 +22°C° 0 mm 1 mps 660 mmHg 84%
20:00 +22°C° 0 mm 1 mps 660 mmHg 86%
21:00 +21°C° 0 mm 1 mps 660 mmHg 89%
22:00 +21°C° 0 mm 1 mps 660 mmHg 91%
23:00 +20°C° 0 mm 1 mps 660 mmHg 93%

3 October, Sunday

Time Temperature Precipitation Wind Pressure Humidity
00:00 +19°C° 0.2 mm 2 mps 660 mmHg 93%
01:00 +19°C° 0.2 mm 2 mps 660 mmHg 94%
02:00 +19°C° 0.2 mm 2 mps 660 mmHg 94%
03:00 +19°C° 0.1 mm 2 mps 660 mmHg 94%
04:00 +19°C° 0.1 mm 3 mps 660 mmHg 94%
05:00 +19°C° 0.1 mm 3 mps 660 mmHg 94%
06:00 +20°C° 0 mm 3 mps 661 mmHg 90%
07:00 +20°C° 0 mm 3 mps 661 mmHg 86%
08:00 +21°C° 0 mm 3 mps 661 mmHg 82%
09:00 +24°C° 0 mm 2 mps 662 mmHg 72%
10:00 +26°C° 0 mm 2 mps 662 mmHg 62%
11:00 +29°C° 0 mm 2 mps 662 mmHg 52%
12:00 +28°C° 0.3 mm 2 mps 661 mmHg 54%
13:00 +28°C° 0.3 mm 2 mps 660 mmHg 55%
14:00 +28°C° 0.3 mm 1 mps 660 mmHg 57%
15:00 +26°C° 2.5 mm 2 mps 659 mmHg 67%
16:00 +22°C° 2.5 mm 3 mps 659 mmHg 78%
17:00 +20°C° 2.5 mm 3 mps 659 mmHg 88%
18:00 +20°C° 0.2 mm 3 mps 660 mmHg 88%
19:00 +19°C° 0.2 mm 3 mps 660 mmHg 89%
20:00 +19°C° 0.2 mm 2 mps 660 mmHg 90%
21:00 +19°C° 0 mm 3 mps 661 mmHg 90%
22:00 +19°C° 0 mm 3 mps 661 mmHg 90%
23:00 +19°C° 0 mm 3 mps 661 mmHg 91%

4 October, Monday

Time Temperature Precipitation Wind Pressure Humidity
00:00 +19°C° 0 mm 3 mps 661 mmHg 93%
01:00 +19°C° 0 mm 3 mps 660 mmHg 94%
02:00 +19°C° 0 mm 4 mps 660 mmHg 96%
03:00 +19°C° 0 mm 3 mps 660 mmHg 96%
04:00 +18°C° 0 mm 3 mps 660 mmHg 95%
05:00 +18°C° 0 mm 2 mps 661 mmHg 95%
06:00 +19°C° 0 mm 2 mps 661 mmHg 89%
07:00 +21°C° 0 mm 2 mps 662 mmHg 82%
08:00 +23°C° 0 mm 2 mps 662 mmHg 76%
09:00 +25°C° 0 mm 2 mps 663 mmHg 65%
10:00 +28°C° 0 mm 2 mps 663 mmHg 55%
11:00 +30°C° 0 mm 2 mps 663 mmHg 45%
12:00 +29°C° 0 mm 2 mps 662 mmHg 49%
13:00 +29°C° 0 mm 2 mps 662 mmHg 52%
14:00 +28°C° 0 mm 2 mps 661 mmHg 56%
15:00 +27°C° 0 mm 1 mps 661 mmHg 60%
16:00 +27°C° 0 mm 1 mps 660 mmHg 63%
17:00 +26°C° 0 mm 1 mps 660 mmHg 66%
18:00 +24°C° 0.1 mm 1 mps 660 mmHg 73%
19:00 +23°C° 0.1 mm 1 mps 661 mmHg 80%
20:00 +21°C° 0.1 mm 1 mps 661 mmHg 86%
21:00 +21°C° 0.5 mm 1 mps 661 mmHg 90%
22:00 +19°C° 0.5 mm 2 mps 661 mmHg 93%
23:00 +19°C° 0.5 mm 2 mps 662 mmHg 96%
Show more

We Need Your Consent

Meteoprog and our Service Providers may store and access personal data such as cookies, device identifiers or other similar technologies on your device and process such data to personalise content and ads, as well as provide social media features and to analyse the traffic.

  • Store and/or access information on your device

    Cookies, device identifiers or other information can be stored or accessed on your device for the purposes indicated above.

  • Personalised ads and content, ad and content measurement, audience insights, and products development

    Ads and content can be personalised based on a profile. More data can be added to better personalise ads and content. Ad and content performance can be measured. Insights about the audience who saw the ads and content can be derived. Such data can be used to develop or improve user’s experience, systems and software.

By clicking ‘I Agree’ you will allow the use of indicated cookies, device identifiers, web beacons or other similar technologies. Your settings can be changed in the browser on your device.

For certain purposes, legitimate interests may be relied on, rather than consent. You can read more about this in our Privacy and Cookie Policy.